Flag for U.S.A. Weather past 2 weeks in Sidney, Montana, U.S.A.

Now
36 °F

Clear.


Feels Like: 36 °F
Forecast: 24 / 60 °F
Wind: No wind

Location: Sidney-Richland

Current Time: Apr 21, 2015 at 10:32:10 PM

Latest Report: Apr 21, 2015 at 9:35 PM


Visibility: 10 mi

Pressure: 29.99 "Hg

Humidity: 35%

Dew point: 10 °F

Location of SidneyLocation

Historic Weather in Sidney — Graph

°F

Sidney temperature yesterday

Maximum temperature yesterday: 55 °F (at 4:15 PM)
Minimum temperature yesterday: 27 °F (at 3:55 AM)
Average temperature yesterday: 42 °F

Past Weeks' High & Low Weather Summary

 TemperatureHumidityPressure
High81 °F (Apr 14, 4:15 PM)93% (Apr 8, 1:55 AM)30.25 "Hg (Apr 8, 1:55 AM)
Low21 °F (Apr 10, 6:15 AM)14% (Apr 16, 5:15 PM)29.44 "Hg (Apr 15, 12:15 AM)
Average47 °F46%29.93 "Hg
* Reported Apr 6 9:15 PM — Apr 21 9:15 PM, Sidney, Weather by CustomWeather, © 2015

Note: Actual official high and low records may vary slightly from our data, if they occured in-between our weather recording intervals... More about our weather records

Advertising

Sidney weather history for previous 24 hours

 ConditionsComfort  
Time TempWeatherWind HumidityBarometerVisibility
9:15 PM
Tue, Apr 21
39 °FClear.No wind33%29.99 "Hg10 mi
8:55 PM39 °FClear.No wind33%29.99 "Hg10 mi
8:35 PM39 °FSunny.5 mph33%29.98 "Hg10 mi
8:15 PM43 °FSunny.7 mph29%29.98 "Hg10 mi
7:55 PM45 °FSunny.8 mph27%29.97 "Hg10 mi
7:35 PM46 °FSunny.8 mph25%29.97 "Hg10 mi
7:15 PM48 °FSunny.7 mph21%29.97 "Hg10 mi
6:55 PM48 °FSunny.3 mph21%29.97 "Hg10 mi
6:35 PM50 °FSunny.8 mph19%29.97 "Hg10 mi
6:15 PM52 °FSunny.6 mph19%29.97 "Hg10 mi
5:55 PM52 °FSunny.7 mph20%29.97 "Hg10 mi
5:35 PM52 °FSunny.7 mph19%29.97 "Hg10 mi
4:55 PM52 °FSunny.3 mph20%29.97 "Hg10 mi
4:35 PM52 °FSunny.7 mph20%29.97 "Hg10 mi
4:15 PM52 °FSunny.3 mph20%29.98 "Hg10 mi
3:55 PM52 °FSunny.No wind20%29.98 "Hg10 mi
3:35 PM52 °FSunny.3 mph22%29.98 "Hg10 mi
3:15 PM52 °FSunny.5 mph20%29.98 "Hg10 mi
2:55 PM48 °FSunny.No wind23%29.98 "Hg10 mi
2:35 PM50 °FSunny.No wind25%29.99 "Hg10 mi
2:15 PM50 °FSunny.9 mph25%29.99 "Hg10 mi
1:55 PM52 °FSunny.12 mph24%29.98 "Hg10 mi
1:35 PM50 °FSunny.10 mph25%29.99 "Hg10 mi
1:15 PM48 °FSunny.9 mph27%29.99 "Hg10 mi
12:55 PM48 °FSunny.7 mph27%29.99 "Hg10 mi
12:35 PM46 °FSunny.No wind29%29.99 "Hg10 mi
12:15 PM46 °FSunny.7 mph32%29.99 "Hg10 mi
11:55 AM46 °FSunny.6 mph37%29.99 "Hg10 mi
11:35 AM45 °FSunny.3 mph39%29.99 "Hg10 mi
11:15 AM45 °FSunny.10 mph39%29.99 "Hg10 mi
10:55 AM45 °FSunny.10 mph42%29.99 "Hg10 mi
10:35 AM45 °FScattered clouds.6 mph46%29.98 "Hg10 mi
10:15 AM43 °FScattered clouds.No wind49%29.97 "Hg10 mi
9:55 AM43 °FSunny.9 mph49%29.97 "Hg10 mi
9:35 AM41 °FPassing clouds.10 mph53%29.97 "Hg10 mi
9:15 AM39 °FPassing clouds.7 mph56%29.96 "Hg10 mi
8:55 AM39 °FPassing clouds.6 mph56%29.95 "Hg10 mi
8:35 AM39 °FPassing clouds.8 mph61%29.95 "Hg10 mi
8:15 AM37 °FPassing clouds.7 mph60%29.94 "Hg10 mi
7:55 AM36 °FPassing clouds.5 mph60%29.93 "Hg10 mi
7:35 AM36 °FScattered clouds.5 mph65%29.92 "Hg10 mi
7:15 AM36 °FScattered clouds.5 mph56%29.91 "Hg10 mi
6:55 AM34 °FPassing clouds.6 mph65%29.90 "Hg10 mi
6:35 AM32 °FPassing clouds.5 mph64%29.88 "Hg10 mi
6:15 AM32 °FPassing clouds.5 mph64%29.87 "Hg10 mi
5:55 AM32 °FClear.6 mph64%29.86 "Hg10 mi
5:35 AM34 °FClear.7 mph60%29.86 "Hg10 mi
5:15 AM36 °FPassing clouds.8 mph56%29.85 "Hg10 mi
4:55 AM36 °FPassing clouds.8 mph56%29.84 "Hg10 mi
4:35 AM37 °FPassing clouds.8 mph52%29.84 "Hg10 mi
4:15 AM37 °FClear.9 mph52%29.84 "Hg10 mi
3:55 AM37 °FClear.9 mph52%29.83 "Hg10 mi
3:35 AM39 °FPassing clouds.10 mph48%29.83 "Hg10 mi
3:15 AM39 °FPartly cloudy.9 mph48%29.84 "Hg10 mi
2:55 AM39 °FPassing clouds.9 mph48%29.83 "Hg10 mi
2:35 AM39 °FPassing clouds.12 mph45%29.83 "Hg10 mi
2:15 AM39 °FPassing clouds.7 mph45%29.83 "Hg10 mi
1:55 AM39 °FPassing clouds.9 mph42%29.83 "Hg10 mi
1:35 AM39 °FPassing clouds.12 mph45%29.82 "Hg10 mi
1:15 AM39 °FClear.9 mph45%29.81 "Hg10 mi
12:55 AM39 °FPassing clouds.10 mph45%29.81 "Hg10 mi
12:35 AM39 °FPassing clouds.No wind45%29.80 "Hg10 mi
12:15 AM39 °FPassing clouds.No wind45%29.80 "Hg10 mi
11:55 PM
Mon, Apr 20
37 °FPartly cloudy.No wind52%29.80 "Hg10 mi
11:35 PM39 °FPassing clouds.No wind45%29.80 "Hg10 mi
11:15 PM37 °FPassing clouds.No wind48%29.79 "Hg10 mi
10:55 PM36 °FClear.No wind44%29.80 "Hg10 mi
10:35 PM39 °FClear.No wind42%29.81 "Hg10 mi
10:15 PM39 °FPassing clouds.No wind45%29.81 "Hg10 mi
Weather by CustomWeather, © 2015

See weather overviewHow to use our weather pages